Franklin, NC

7:58 PM EDT on June 22, 2017 (GMT -0400)
Franklin

Weather History for K1A5 - December, 2013

Change the Weather History Date:

Friday, December 6, 2013

  Actual Average (KTOC) Record (KTOC)
Temperature  
Mean Temperature 61 °F -  
Max Temperature 69 °F 57 °F 77 °F (2013)
Min Temperature 53 °F 34 °F 34 °F (2015)
Degree Days  
Heating Degree Days 4    
Growing Degree Days 11 (Base 50)    
Moisture  
Dew Point 59 °F    
Average Humidity 87    
Maximum Humidity 100    
Minimum Humidity 67    
Precipitation  
Precipitation 0.00 in - - ()
Sea Level Pressure  
Sea Level Pressure 30.03 in    
Wind  
Wind Speed 2 mph (SE)    
Max Wind Speed 15 mph    
Max Gust Speed 29 mph    
Visibility 10 miles    
Events Rain    
Averages and records for this station are not official NWS values.
T = Trace of Precipitation, MM = Missing Value Source: NWS Daily Summary

Daily Weather History Graph

Daily Weather History Graph

Search for Another Location

Airport or City:

Trip Planner

Search our weather history database for the weather conditions in past years. The results will help you decide how hot, cold, wet, or windy it might be!

Date:

Astronomy

Dec. 06, 2013 Rise Set
Actual Time 7:28 AM EST 5:21 PM EST
Civil Twilight 7:00 AM EST 5:49 PM EST
Nautical Twilight 6:28 AM EST 6:20 PM EST
Astronomical Twilight 5:57 AM EST 6:51 PM EST
Moon 10:38 AM EST (12/6) 9:45 PM EST (12/6)
Length of Visible Light 10h 48m
Length of Day
9h 52m
Waxing Crescent, 19% of the Moon is Illuminated
Dec 6
Waxing Crescent
Dec 9
First Quarter
Dec 17
Full
Dec 25
Last Quarter
Jan 1
New

Hourly Weather History & Observations

Time (EST) Temp. Dew Point Humidity Pressure Visibility Wind Dir Wind Speed Gust Speed Precip Events Conditions
12:15 AM 59.0 °F 58.5 °F 98% 30.05 in 5.0 mi Calm Calm - N/A   Drizzle
12:35 AM 59.2 °F 58.8 °F 99% 30.05 in 10.0 mi Calm Calm - N/A Rain Light Rain
12:55 AM 59.2 °F 58.6 °F 98% 30.04 in 10.0 mi Calm Calm - N/A   Light Drizzle
1:15 AM 59.2 °F 58.6 °F 98% 30.03 in 10.0 mi ENE 4.6 mph - N/A Rain Rain
1:35 AM 59.0 °F 58.5 °F 98% 30.04 in 10.0 mi Calm Calm - N/A   Light Drizzle
1:55 AM 58.5 °F 58.1 °F 99% 30.03 in 10.0 mi NE 3.5 mph - N/A   Overcast
2:15 AM 58.8 °F 58.3 °F 98% 30.02 in 10.0 mi Calm Calm - N/A   Overcast
2:35 AM 59.0 °F 58.3 °F 97% 30.00 in 10.0 mi Calm Calm - N/A Rain Light Rain
2:55 AM 61.5 °F 61.0 °F 98% 30.02 in 5.0 mi Calm Calm - N/A Rain Rain
3:15 AM 61.2 °F 61.2 °F 100% 30.01 in 7.0 mi Calm Calm - N/A Rain Rain
3:35 AM 60.6 °F 60.6 °F 100% 30.01 in 10.0 mi Calm Calm - N/A Rain Rain
3:55 AM 60.1 °F 60.1 °F 100% 30.02 in 10.0 mi Calm Calm - N/A Rain Rain
4:15 AM 60.8 °F 60.8 °F 100% 30.01 in 10.0 mi Calm Calm - N/A   Light Drizzle
4:35 AM 60.4 °F 60.4 °F 100% 30.00 in 10.0 mi Calm Calm - N/A   Overcast
4:55 AM 62.1 °F 62.1 °F 100% 30.00 in 10.0 mi Calm Calm - N/A   Overcast
5:15 AM 62.1 °F 62.1 °F 100% 30.00 in 10.0 mi Calm Calm - N/A   Overcast
5:35 AM 62.6 °F 62.6 °F 100% 29.99 in 10.0 mi SSE 3.5 mph - N/A Rain Light Rain
5:55 AM 62.1 °F 62.1 °F 100% 30.00 in 7.0 mi Calm Calm - N/A Rain Rain
6:15 AM 62.6 °F 62.6 °F 100% 30.01 in 10.0 mi SSE 4.6 mph - N/A   Drizzle
6:35 AM 62.4 °F 62.4 °F 100% 30.02 in 10.0 mi Calm Calm - N/A   Drizzle
6:55 AM 62.4 °F 62.4 °F 100% 30.03 in 10.0 mi SSE 3.5 mph - N/A   Overcast
7:15 AM 62.2 °F 62.2 °F 100% 30.04 in 10.0 mi SE 6.9 mph - N/A   Light Drizzle
7:35 AM 62.8 °F 61.3 °F 95% 30.04 in 10.0 mi Calm Calm - N/A   Overcast
7:55 AM 63.0 °F 60.8 °F 93% 30.04 in 10.0 mi Calm Calm - N/A Rain Rain
8:15 AM 62.1 °F 61.9 °F 99% 30.05 in 10.0 mi Calm Calm - N/A   Overcast
8:35 AM 64.0 °F 59.9 °F 86% 30.04 in 10.0 mi Calm Calm - N/A   Overcast
8:55 AM 64.4 °F 59.9 °F 85% 30.05 in 10.0 mi SE 6.9 mph - N/A   Overcast
9:15 AM 64.6 °F 59.9 °F 85% 30.05 in 10.0 mi SSE 3.5 mph - N/A   Overcast
9:35 AM 65.1 °F 59.0 °F 81% 30.06 in 10.0 mi SSE 4.6 mph - N/A   Overcast
9:55 AM 64.9 °F 58.8 °F 81% 30.06 in 10.0 mi Calm Calm - N/A   Overcast
10:15 AM 64.8 °F 59.5 °F 83% 30.07 in 10.0 mi SE 5.8 mph - N/A   Overcast
10:35 AM 64.8 °F 59.5 °F 83% 30.08 in 10.0 mi SE 3.5 mph - N/A   Overcast
10:55 AM 64.9 °F 59.2 °F 82% 30.07 in 10.0 mi SE 6.9 mph - N/A   Drizzle
11:15 AM 65.1 °F 58.8 °F 80% 30.07 in 10.0 mi Calm Calm - N/A   Overcast
11:35 AM 65.3 °F 58.6 °F 79% 30.06 in 10.0 mi SSE 8.1 mph - N/A   Overcast
11:55 AM 65.5 °F 58.8 °F 79% 30.05 in 10.0 mi SSE 8.1 mph - N/A   Overcast
12:15 PM 66.0 °F 58.6 °F 77% 30.04 in 10.0 mi Calm Calm - N/A   Overcast
12:35 PM 66.6 °F 58.6 °F 76% 30.04 in 10.0 mi South 6.9 mph - N/A   Overcast
12:55 PM 67.1 °F 58.6 °F 74% 30.03 in 10.0 mi SSE 5.8 mph - N/A   Overcast
1:15 PM 68.0 °F 58.5 °F 71% 30.03 in 10.0 mi SE 4.6 mph - N/A   Overcast
1:35 PM 67.6 °F 58.6 °F 73% 30.02 in 10.0 mi SE 5.8 mph - N/A   Overcast
1:55 PM 67.5 °F 58.5 °F 73% 30.01 in 10.0 mi ESE 6.9 mph - N/A   Overcast
2:15 PM 67.5 °F 58.5 °F 73% 30.01 in 10.0 mi SSE 5.8 mph - N/A   Overcast
2:35 PM 67.5 °F 58.5 °F 73% 30.01 in 10.0 mi Calm Calm - N/A   Overcast
2:55 PM 67.3 °F 58.6 °F 74% 30.00 in 10.0 mi SE 3.5 mph - N/A   Overcast
3:15 PM 67.3 °F 58.6 °F 74% 30.00 in 10.0 mi ESE 6.9 mph - N/A Rain Light Rain
3:35 PM 67.3 °F 58.5 °F 73% 30.00 in 10.0 mi ESE 5.8 mph - N/A   Overcast
3:55 PM 67.1 °F 58.5 °F 74% 30.01 in 10.0 mi ESE 5.8 mph - N/A   Overcast
4:15 PM 67.3 °F 58.5 °F 73% 29.99 in 10.0 mi SE 5.8 mph - N/A   Overcast
4:35 PM 65.5 °F 59.5 °F 81% 30.00 in 7.0 mi SE 8.1 mph - N/A Rain Light Rain
4:55 PM 64.6 °F 60.3 °F 86% 30.00 in 10.0 mi Calm Calm - N/A   Overcast
5:15 PM 64.9 °F 59.9 °F 84% 30.00 in 10.0 mi Calm Calm - N/A   Overcast
5:35 PM 65.3 °F 59.4 °F 81% 30.00 in 10.0 mi SSE 5.8 mph - N/A   Overcast
6:15 PM 68.0 °F 56.7 °F 67% 30.01 in 10.0 mi SW 9.2 mph 16.1 mph N/A   Drizzle
6:55 PM 66.9 °F 58.1 °F 73% 30.00 in 10.0 mi Calm Calm - N/A Rain Rain
7:15 PM 66.7 °F 58.5 °F 75% 30.00 in 10.0 mi SE 4.6 mph - N/A   Light Drizzle
7:35 PM 65.8 °F 58.6 °F 78% 30.00 in 10.0 mi SSE 4.6 mph - N/A   Overcast
7:55 PM 66.2 °F 59.0 °F 78% 29.99 in 10.0 mi SSE 3.5 mph - N/A   Overcast
8:15 PM 66.6 °F 59.0 °F 77% 29.98 in 10.0 mi South 4.6 mph - N/A   Overcast
8:35 PM 57.6 °F 52.9 °F 84% 30.03 in 3.0 mi North 15.0 mph 28.8 mph N/A Rain Heavy Rain
8:55 PM 56.1 °F 52.7 °F 88% 30.06 in 10.0 mi North 3.5 mph - N/A Rain Light Rain
9:15 PM 55.6 °F 51.4 °F 86% 30.08 in 10.0 mi NNW 15.0 mph 19.6 mph N/A   Light Drizzle
9:35 PM 56.3 °F 51.1 °F 83% 30.07 in 10.0 mi Calm Calm - N/A Rain Rain
9:55 PM 55.2 °F 52.0 °F 89% 30.08 in 10.0 mi Calm Calm - N/A Rain Light Rain
10:15 PM 55.0 °F 53.1 °F 93% 30.11 in 10.0 mi Calm Calm - N/A Rain Rain
10:35 PM 54.5 °F 53.4 °F 96% 30.09 in 10.0 mi Calm Calm - N/A Rain Light Rain
10:55 PM 54.1 °F 53.6 °F 98% 30.10 in 10.0 mi Calm Calm - N/A   Overcast
11:15 PM 54.1 °F 53.6 °F 98% 30.10 in 10.0 mi Calm Calm - N/A Rain Rain
11:35 PM 54.3 °F 53.8 °F 98% 30.10 in 10.0 mi Calm Calm - N/A   Heavy Drizzle
11:55 PM 53.6 °F 53.1 °F 98% 30.09 in 10.0 mi Calm Calm - N/A Rain Light Rain